Location: Limerick
(52.6800°N, 8.6400°W)
Time: 21:15:18
(UTC+01:00)

Daily predictions for brighter satellites

Satellite Brightness Start Highest point End
(mag) Time Altitude Azimuth Time Altitude Azimuth Time Altitude Azimuth
ATLAS 2AS CENTAUR R/B 4.4 22:43:25 10° SE 22:48:02 17° ESE 22:52:50 10° ENE
Sich 1 3.5 22:45:11 10° SSE 22:49:24 45° E 22:53:35 10° NNE
COSMOS 2455 3.7 22:43:54 10° NW 22:49:41 45° NE 22:55:27 10° ESE
Cosmos 1633 Rocket 3.5 22:47:14 10° SSE 22:51:24 44° E 22:55:34 10° NNE
SAR-Lupe-2 4.4 22:49:28 10° SE 22:52:49 39° ENE 22:56:12 10° N
SPOT 5 4.1 22:49:18 10° SSW 22:53:36 38° W 22:58:10 10° NNW
Lacrosse 4 Rocket 3.0 22:49:47 10° NNW 22:53:40 30° NE 22:57:37 10° E
USA 32 4.2 22:48:39 10° N 22:53:55 65° E 22:59:09 10° SSE
Cosmos 1726 2.2 22:50:32 10° NNW 22:54:21 86° W 22:58:07 10° S
Cosmos 2360 Rocket 3.6 22:49:29 10° NW 22:54:27 33° WSW 22:59:25 10° SSW
Nadezhda 1 Rocket 4.3 22:51:06 10° N 22:57:06 55° ENE 23:03:05 10° SSE
Meteor 2-10 4.4 22:53:40 10° N 22:59:21 69° ENE 23:05:04 10° SSE
ATLAS 3B R/B 3.2 22:53:05 10° NW 23:00:17 61° NE 23:07:01 10° ESE
Cosmos 1271 Rocket 2.7 22:57:53 10° N 23:01:43 79° ENE 23:05:35 10° SSE
NOAA 11 4.5 22:57:55 10° S 23:03:21 70° WSW 23:08:50 10° NNW
Cosmos 1805 Rocket 3.7 23:01:31 10° S 23:06:00 87° WNW 23:10:28 10° N
Cosmos 2058 3.0 23:03:10 10° SSW 23:07:16 81° W 23:11:25 10° N
SL-14 R/B 3.3 23:03:47 10° S 23:07:43 72° E 23:11:46 10° NNE
Cosmos 1703 3.8 23:04:20 10° SSE 23:08:02 42° E 23:11:45 10° NNE
NOSS 3-1 (C) 3.7 23:05:52 10° SSW 23:11:35 49° ESE 23:18:00 10° NE
Cosmos 1745 Rocket 4.2 23:09:33 10° S 23:15:36 57° E 23:21:39 10° NNE
Meteor 1-11 4.3 23:12:59 10° SSW 23:18:46 89° WNW 23:24:31 10° NNE
Iridium 2 3.9 23:16:09 10° S 23:19:56 60° E 23:23:45 10° NNE
Cosmos 2298 Rocket 4.1 23:16:31 10° SSW 23:21:48 69° ESE 23:27:06 10° NNE
Meteor 1-4 Rocket 3.2 23:18:57 10° NNW 23:22:41 57° W 23:26:21 10° S
Cosmos 1937 Rocket 3.8 23:21:01 10° S 23:26:02 49° ESE 23:31:03 10° NE
Cosmos 2227 Rocket 3.0 23:22:09 10° SSE 23:27:06 32° ESE 23:32:04 10° NE
Cosmos 1666 Rocket 3.8 23:23:57 10° SSW 23:28:20 72° WNW 23:32:49 10° N
Cosmos 1933 4.3 23:25:56 10° N 23:29:42 35° ENE 23:33:07 12° SE
CZ-4C R/B 3.9 23:24:24 10° NW 23:30:31 41° NNE 23:37:23 10° E
Landsat 7 4.3 23:26:33 10° S 23:31:13 56° W 23:35:56 10° NNW
Cosmos 292 Rocket 4.4 23:26:37 10° NW 23:31:15 50° WSW 23:35:49 10° S
NOSS 0 Rocket 4.2 23:25:24 10° NW 23:31:31 66° WSW 23:37:18 11° SSE
Cosmos 2333 Rocket 2.4 23:26:06 10° NW 23:31:51 73° WSW 23:37:13 12° SSE
ERBS 4.5 23:31:57 11° SE 23:31:57 11° SE 23:32:56 10° ESE
SL-16 R/B 2.6 23:29:09 10° NNW 23:34:47 59° NE 23:40:16 11° SE
IGS 5A 3.6 23:32:29 11° S 23:36:32 72° WSW 23:40:44 10° NNW
Cosmos 220 Rocket 4.3 23:32:43 10° S 23:36:59 53° ESE 23:41:20 10° NNE
Okean 1-7 4.4 23:34:09 10° N 23:37:53 28° ENE 23:41:25 11° SE
Cosmos 990 Rocket 4.4 23:34:03 10° S 23:38:55 45° ESE 23:43:50 10° NE
Cosmos 1626 2.5 23:36:32 12° S 23:39:48 49° E 23:43:28 10° NNE
Cosmos 1703 Rocket 4.2 23:35:42 10° N 23:39:53 43° ENE 23:43:29 13° SE
Cosmos 2181 Rocket 4.4 23:34:57 10° N 23:41:12 56° ENE 23:46:54 13° SSE
Cosmos 1470 Rocket 3.5 23:37:27 10° S 23:41:46 71° E 23:46:05 10° NNE
COS B Rocket 4.4 23:38:47 10° NNE 23:41:58 28° E 23:44:46 14° SE
Cosmos 1269 Rocket 4.2 23:36:45 10° NNW 23:42:05 67° ENE 23:46:49 13° SE
H-2A R/B 2.6 23:37:27 10° S 23:42:44 59° W 23:48:09 10° NNW
Cosmos 1386 Rocket 4.5 23:36:57 10° S 23:42:53 66° E 23:48:52 10° NNE
Cosmos 1933 Rocket 3.6 23:38:40 10° S 23:43:06 71° E 23:47:35 10° NNE
COSMOS 2428 4.2 23:38:23 10° NW 23:43:08 28° WSW 23:47:52 10° SSW
Cosmos 2221 Rocket 4.3 23:39:37 10° N 23:44:03 46° ENE 23:47:47 14° SE
ATLAS 5 CENTAUR R/B 4.2 23:39:54 10° WNW 23:44:32 30° NNW 23:49:34 10° NE
USA 234 3.8 23:39:15 10° E 23:45:41 62° N 23:52:08 10° WNW
Spot 4 4.1 23:42:07 11° S 23:46:42 70° WSW 23:51:35 10° NNW
Terra 2.3 23:42:24 10° S 23:47:04 56° WSW 23:51:47 10° NNW
GEOS 3 Rocket 3.8 23:43:26 10° SE 23:48:38 74° NE 23:53:49 10° NW
Cosmos 1900 4.3 23:47:50 10° NW 23:52:54 88° SW 23:57:08 14° SE
Cosmos 2297 Rocket 2.9 23:49:44 13° S 23:54:19 36° ESE 23:59:26 10° NE
